When you browse on this site, cookies collect data to enhance your experience and personalize the content and advertising you see.
Visit our Privacy Policy to learn more. By continuing to use the site, you agree to this use of cookies and data.
  • In Hungary
  • List of Countries
  • For 7 days
  • Water Temperature
  • Weather Map
  • News
  • Weather Widgets
  • user-avatar
    Login

    Hourly Weather Villaricca

    Today, 9 December, Monday

    Time Temperature Precipitation Wind Pressure Humidity
    00:00 +13°C° 0 mm 1 mps 753 mmHg 87%
    01:00 +13°C° 0 mm 2 mps 752 mmHg 90%
    02:00 +13°C° 0.1 mm 2 mps 752 mmHg 90%
    03:00 +12°C° 0.1 mm 1 mps 751 mmHg 90%
    04:00 +12°C° 0.1 mm 1 mps 750 mmHg 91%
    05:00 +12°C° 0 mm 1 mps 750 mmHg 90%
    06:00 +12°C° 0 mm 1 mps 750 mmHg 90%
    07:00 +12°C° 0 mm 1 mps 750 mmHg 91%
    08:00 +13°C° 0.2 mm 1 mps 750 mmHg 87%
    09:00 +13°C° 0.2 mm 2 mps 749 mmHg 83%
    10:00 +14°C° 0.2 mm 2 mps 749 mmHg 79%
    11:00 +14°C° 0.4 mm 3 mps 748 mmHg 75%
    12:00 +14°C° 0.4 mm 3 mps 748 mmHg 72%
    13:00 +15°C° 0.4 mm 4 mps 747 mmHg 69%
    14:00 +14°C° 0.7 mm 5 mps 747 mmHg 73%
    15:00 +14°C° 0.7 mm 5 mps 746 mmHg 77%
    16:00 +13°C° 0.7 mm 5 mps 746 mmHg 82%
    17:00 +13°C° 0.2 mm 5 mps 746 mmHg 78%
    18:00 +13°C° 0.2 mm 5 mps 746 mmHg 74%
    19:00 +13°C° 0.2 mm 5 mps 746 mmHg 70%
    20:00 +13°C° 0.2 mm 5 mps 745 mmHg 73%
    21:00 +12°C° 0.2 mm 5 mps 745 mmHg 75%
    22:00 +11°C° 0.2 mm 6 mps 745 mmHg 77%
    23:00 +10°C° 0.3 mm 5 mps 745 mmHg 78%

    Tomorrow, 10 December, Tuesday

    Time Temperature Precipitation Wind Pressure Humidity
    00:00 +11°C° 0.3 mm 4 mps 745 mmHg 78%
    01:00 +11°C° 0.3 mm 3 mps 744 mmHg 79%
    02:00 +11°C° 0.2 mm 3 mps 744 mmHg 78%
    03:00 +11°C° 0.2 mm 3 mps 744 mmHg 78%
    04:00 +11°C° 0.2 mm 3 mps 743 mmHg 77%
    05:00 +10°C° 0.6 mm 3 mps 743 mmHg 78%
    06:00 +10°C° 0.6 mm 2 mps 744 mmHg 79%
    07:00 +10°C° 0.6 mm 2 mps 744 mmHg 80%
    08:00 +11°C° 0.5 mm 3 mps 744 mmHg 75%
    09:00 +11°C° 0.5 mm 3 mps 744 mmHg 69%
    10:00 +12°C° 0.5 mm 4 mps 744 mmHg 63%
    11:00 +13°C° 0.1 mm 4 mps 744 mmHg 59%
    12:00 +14°C° 0.1 mm 3 mps 744 mmHg 55%
    13:00 +14°C° 0.1 mm 3 mps 744 mmHg 52%
    14:00 +13°C° 0.2 mm 4 mps 745 mmHg 58%
    15:00 +13°C° 0.2 mm 4 mps 745 mmHg 64%
    16:00 +12°C° 0.2 mm 5 mps 745 mmHg 70%
    17:00 +10°C° 0.5 mm 6 mps 746 mmHg 72%
    18:00 +10°C° 0.5 mm 6 mps 746 mmHg 74%
    19:00 +9°C° 0.5 mm 7 mps 747 mmHg 76%
    20:00 +9°C° 0.1 mm 7 mps 747 mmHg 75%
    21:00 +9°C° 0.1 mm 7 mps 747 mmHg 73%
    22:00 +7°C° 0.1 mm 8 mps 748 mmHg 72%
    23:00 +8°C° 0 mm 7 mps 748 mmHg 69%

    Day after tomorrow, 11 December, Wednesday

    Time Temperature Precipitation Wind Pressure Humidity
    00:00 +6°C° 0 mm 7 mps 748 mmHg 67%
    01:00 +7°C° 0 mm 6 mps 749 mmHg 65%
    02:00 +7°C° 0 mm 6 mps 748 mmHg 66%
    03:00 +7°C° 0 mm 5 mps 748 mmHg 67%
    04:00 +6°C° 0 mm 5 mps 748 mmHg 67%
    05:00 +6°C° 0 mm 4 mps 748 mmHg 67%
    06:00 +6°C° 0 mm 4 mps 748 mmHg 66%
    07:00 +6°C° 0 mm 4 mps 748 mmHg 65%
    08:00 +7°C° 0 mm 4 mps 749 mmHg 63%
    09:00 +7°C° 0 mm 4 mps 749 mmHg 61%
    10:00 +8°C° 0 mm 4 mps 749 mmHg 58%
    11:00 +10°C° 0 mm 3 mps 749 mmHg 56%
    12:00 +11°C° 0 mm 3 mps 749 mmHg 54%
    13:00 +12°C° 0 mm 3 mps 748 mmHg 51%
    14:00 +11°C° 0 mm 3 mps 748 mmHg 53%
    15:00 +12°C° 0 mm 2 mps 748 mmHg 54%
    16:00 +12°C° 0 mm 2 mps 748 mmHg 55%
    17:00 +10°C° 0 mm 2 mps 748 mmHg 57%
    18:00 +9°C° 0 mm 2 mps 748 mmHg 59%
    19:00 +10°C° 0 mm 1 mps 748 mmHg 60%
    20:00 +9°C° 0 mm 1 mps 748 mmHg 61%
    21:00 +9°C° 0 mm 1 mps 748 mmHg 61%
    22:00 +9°C° 0 mm 1 mps 748 mmHg 62%
    23:00 +8°C° 0 mm 1 mps 748 mmHg 62%

    12 December, Thursday

    Time Temperature Precipitation Wind Pressure Humidity
    00:00 +8°C° 0 mm 1 mps 747 mmHg 62%
    01:00 +8°C° 0 mm 1 mps 747 mmHg 62%
    02:00 +8°C° 0 mm 1 mps 747 mmHg 63%
    03:00 +8°C° 0 mm 1 mps 746 mmHg 63%
    04:00 +8°C° 0 mm 1 mps 746 mmHg 63%
    05:00 +9°C° 0 mm 1 mps 746 mmHg 65%
    06:00 +9°C° 0 mm 1 mps 746 mmHg 66%
    07:00 +9°C° 0 mm 1 mps 746 mmHg 68%
    08:00 +9°C° 0 mm 2 mps 746 mmHg 68%
    09:00 +9°C° 0 mm 2 mps 746 mmHg 68%
    10:00 +10°C° 0 mm 3 mps 746 mmHg 69%
    11:00 +10°C° 0 mm 3 mps 745 mmHg 68%
    12:00 +11°C° 0 mm 3 mps 745 mmHg 68%
    13:00 +13°C° 0 mm 2 mps 745 mmHg 68%
    14:00 +12°C° 0 mm 3 mps 745 mmHg 69%
    15:00 +11°C° 0 mm 3 mps 745 mmHg 71%
    16:00 +11°C° 0 mm 3 mps 745 mmHg 73%
    17:00 +11°C° 0 mm 3 mps 745 mmHg 74%
    18:00 +10°C° 0 mm 4 mps 746 mmHg 75%
    19:00 +8°C° 0 mm 4 mps 746 mmHg 76%
    20:00 +8°C° 0 mm 4 mps 746 mmHg 75%
    21:00 +9°C° 0 mm 3 mps 746 mmHg 74%
    22:00 +8°C° 0 mm 3 mps 747 mmHg 73%
    23:00 +8°C° 0 mm 3 mps 747 mmHg 72%

    13 December, Friday

    Time Temperature Precipitation Wind Pressure Humidity
    00:00 +8°C° 0 mm 3 mps 747 mmHg 72%
    01:00 +7°C° 0 mm 2 mps 747 mmHg 72%
    02:00 +7°C° 0 mm 3 mps 747 mmHg 72%
    03:00 +7°C° 0 mm 3 mps 746 mmHg 72%
    04:00 +7°C° 0 mm 3 mps 746 mmHg 73%
    05:00 +7°C° 0 mm 2 mps 746 mmHg 73%
    06:00 +6°C° 0 mm 2 mps 746 mmHg 73%
    07:00 +6°C° 0 mm 2 mps 746 mmHg 74%
    08:00 +7°C° 0 mm 2 mps 746 mmHg 70%
    09:00 +8°C° 0 mm 2 mps 746 mmHg 66%
    10:00 +9°C° 0 mm 2 mps 746 mmHg 63%
    11:00 +10°C° 0.1 mm 3 mps 745 mmHg 65%
    12:00 +10°C° 0.1 mm 4 mps 744 mmHg 68%
    13:00 +9°C° 0.1 mm 5 mps 743 mmHg 71%
    14:00 +10°C° 0.4 mm 6 mps 742 mmHg 76%
    15:00 +10°C° 0.4 mm 7 mps 742 mmHg 81%
    16:00 +10°C° 0.4 mm 8 mps 741 mmHg 85%
    17:00 +11°C° 1.2 mm 10 mps 740 mmHg 83%
    18:00 +12°C° 1.2 mm 11 mps 740 mmHg 81%
    19:00 +13°C° 1.2 mm 12 mps 739 mmHg 79%
    20:00 +13°C° 0.7 mm 12 mps 739 mmHg 76%
    21:00 +13°C° 0.7 mm 12 mps 739 mmHg 72%
    22:00 +12°C° 0.7 mm 12 mps 739 mmHg 68%
    23:00 +12°C° 0.1 mm 11 mps 739 mmHg 68%

    14 December, Saturday

    Time Temperature Precipitation Wind Pressure Humidity
    00:00 +12°C° 0.1 mm 11 mps 740 mmHg 68%
    01:00 +12°C° 0.1 mm 10 mps 740 mmHg 68%
    02:00 +11°C° 0 mm 9 mps 741 mmHg 67%
    03:00 +11°C° 0 mm 8 mps 741 mmHg 66%
    04:00 +10°C° 0 mm 8 mps 742 mmHg 66%
    05:00 +10°C° 0 mm 6 mps 742 mmHg 69%
    06:00 +10°C° 0 mm 5 mps 743 mmHg 71%
    07:00 +10°C° 0 mm 4 mps 744 mmHg 74%
    08:00 +11°C° 0.2 mm 4 mps 744 mmHg 74%
    09:00 +12°C° 0.2 mm 5 mps 744 mmHg 73%
    10:00 +14°C° 0.2 mm 5 mps 745 mmHg 72%
    11:00 +14°C° 0 mm 5 mps 745 mmHg 71%
    12:00 +15°C° 0 mm 5 mps 745 mmHg 69%
    13:00 +16°C° 0 mm 5 mps 745 mmHg 68%
    14:00 +16°C° 0 mm 5 mps 745 mmHg 71%
    15:00 +16°C° 0 mm 5 mps 746 mmHg 74%
    16:00 +15°C° 0 mm 6 mps 746 mmHg 77%
    17:00 +15°C° 0 mm 5 mps 747 mmHg 80%
    18:00 +14°C° 0 mm 5 mps 747 mmHg 84%
    19:00 +14°C° 0 mm 5 mps 748 mmHg 87%
    20:00 +14°C° 0 mm 4 mps 748 mmHg 89%
    21:00 +14°C° 0 mm 4 mps 749 mmHg 90%
    22:00 +14°C° 0 mm 4 mps 749 mmHg 91%
    23:00 +14°C° 0.1 mm 4 mps 750 mmHg 91%
    Show more